TimeEST,TemperatureF,Dew PointF,Humidity,Sea Level PressureIn,VisibilityMPH,Wind Direction,Wind SpeedMPH,Gust SpeedMPH,PrecipitationIn,Events,Conditions,WindDirDegrees,DateUTC
12:15 AM,68.0,68.0,100,30.04,10.0,South,4.6,-,N/A,Rain,Rain,190,2013-12-06 05:15:00
12:35 AM,68.0,68.0,100,30.03,10.0,South,9.2,-,N/A,Rain-Thunderstorm,Rain,190,2013-12-06 05:35:00
12:55 AM,68.0,68.0,100,30.04,7.0,SSW,5.8,-,N/A,Rain,Light Rain,200,2013-12-06 05:55:00
1:15 AM,68.0,68.0,100,30.03,10.0,SSW,8.1,-,N/A,,Heavy Drizzle,200,2013-12-06 06:15:00
1:35 AM,68.0,68.0,100,30.03,7.0,SSW,3.5,-,N/A,,Heavy Drizzle,200,2013-12-06 06:35:00
1:55 AM,68.0,68.0,100,30.02,7.0,South,3.5,-,N/A,,Light Drizzle,190,2013-12-06 06:55:00
2:15 AM,68.0,68.0,100,30.02,10.0,South,6.9,-,N/A,Rain,Rain,190,2013-12-06 07:15:00
2:35 AM,68.0,68.0,100,30.01,10.0,South,5.8,-,N/A,,Overcast,190,2013-12-06 07:35:00
2:55 AM,68.0,68.0,100,30.01,10.0,SSW,5.8,-,N/A,,Overcast,200,2013-12-06 07:55:00
3:15 AM,68.0,68.0,100,30.01,10.0,SSW,5.8,-,N/A,,Overcast,210,2013-12-06 08:15:00
3:35 AM,68.0,68.0,100,30.01,10.0,South,5.8,-,N/A,,Overcast,190,2013-12-06 08:35:00
3:55 AM,68.0,68.0,100,30.01,10.0,SSW,5.8,-,N/A,,Overcast,210,2013-12-06 08:55:00
4:15 AM,68.0,66.2,94,30.01,10.0,SSW,4.6,-,N/A,,Overcast,200,2013-12-06 09:15:00
4:35 AM,68.0,66.2,94,30.01,10.0,SSW,5.8,-,N/A,,Overcast,200,2013-12-06 09:35:00
4:55 AM,68.0,66.2,94,30.01,10.0,SSW,4.6,-,N/A,Rain,Light Rain,200,2013-12-06 09:55:00
5:15 AM,68.0,66.2,94,30.02,10.0,SSW,4.6,-,N/A,,Overcast,200,2013-12-06 10:15:00
5:35 AM,68.0,66.2,94,30.02,10.0,SSW,4.6,-,N/A,,Overcast,210,2013-12-06 10:35:00
5:55 AM,68.0,66.2,94,30.03,10.0,SSW,6.9,-,N/A,,Overcast,200,2013-12-06 10:55:00
6:15 AM,68.0,66.2,94,30.03,10.0,SSW,9.2,-,N/A,,Overcast,200,2013-12-06 11:15:00
6:35 AM,68.0,66.2,94,30.02,10.0,South,6.9,-,N/A,,Overcast,180,2013-12-06 11:35:00
6:55 AM,68.0,66.2,94,30.03,10.0,South,6.9,-,N/A,,Overcast,170,2013-12-06 11:55:00
7:15 AM,68.0,66.2,94,30.03,10.0,South,5.8,-,N/A,,Overcast,190,2013-12-06 12:15:00
7:35 AM,68.0,66.2,94,30.04,10.0,South,5.8,-,N/A,,Overcast,180,2013-12-06 12:35:00
7:55 AM,68.0,66.2,94,30.05,10.0,South,3.5,-,N/A,,Overcast,190,2013-12-06 12:55:00
8:15 AM,68.0,66.2,94,30.05,10.0,South,5.8,-,N/A,,Overcast,180,2013-12-06 13:15:00
8:35 AM,68.0,68.0,100,30.05,10.0,South,6.9,-,N/A,,Light Drizzle,170,2013-12-06 13:35:00
8:55 AM,68.0,68.0,100,30.05,7.0,South,5.8,-,N/A,,Drizzle,190,2013-12-06 13:55:00
9:15 AM,68.0,68.0,100,30.06,10.0,South,5.8,-,N/A,,Overcast,190,2013-12-06 14:15:00
9:35 AM,69.8,68.0,94,30.06,10.0,South,4.6,-,N/A,,Overcast,190,2013-12-06 14:35:00
9:55 AM,69.8,68.0,94,30.07,10.0,South,6.9,-,N/A,Rain,Light Rain,180,2013-12-06 14:55:00
10:15 AM,69.8,68.0,94,30.07,10.0,South,6.9,-,N/A,,Overcast,180,2013-12-06 15:15:00
10:35 AM,69.8,68.0,94,30.07,10.0,South,10.4,-,N/A,,Overcast,180,2013-12-06 15:35:00
10:55 AM,71.6,68.0,88,30.06,10.0,SSW,5.8,-,N/A,,Overcast,200,2013-12-06 15:55:00
11:15 AM,71.6,66.2,83,30.06,10.0,SSW,9.2,-,N/A,,Overcast,200,2013-12-06 16:15:00
11:35 AM,71.6,68.0,88,30.05,10.0,South,6.9,-,N/A,,Overcast,190,2013-12-06 16:35:00
11:55 AM,71.6,66.2,83,30.05,10.0,South,9.2,-,N/A,,Overcast,190,2013-12-06 16:55:00
12:15 PM,71.6,66.2,83,30.03,10.0,SSW,9.2,-,N/A,,Overcast,200,2013-12-06 17:15:00
12:35 PM,73.4,66.2,78,30.02,10.0,SSW,8.1,-,N/A,,Overcast,200,2013-12-06 17:35:00
12:55 PM,73.4,66.2,78,30.02,10.0,SSW,8.1,-,N/A,,Overcast,210,2013-12-06 17:55:00
1:15 PM,71.6,66.2,83,30.01,10.0,South,9.2,16.1,N/A,,Overcast,180,2013-12-06 18:15:00
1:35 PM,71.6,66.2,83,30.00,10.0,South,6.9,-,N/A,,Light Drizzle,190,2013-12-06 18:35:00
1:55 PM,73.4,66.2,78,30.00,10.0,SSW,8.1,-,N/A,,Overcast,200,2013-12-06 18:55:00
2:15 PM,75.2,64.4,69,30.00,10.0,South,8.1,23.0,N/A,,Overcast,190,2013-12-06 19:15:00
2:35 PM,73.4,64.4,73,30.00,10.0,SSW,12.7,18.4,N/A,,Overcast,210,2013-12-06 19:35:00
2:55 PM,73.4,64.4,73,30.00,10.0,SSW,8.1,-,N/A,,Overcast,210,2013-12-06 19:55:00
3:15 PM,73.4,64.4,73,30.00,10.0,SSW,5.8,16.1,N/A,,Overcast,200,2013-12-06 20:15:00
3:35 PM,75.2,64.4,69,30.00,10.0,SSW,9.2,-,N/A,,Overcast,210,2013-12-06 20:35:00
3:55 PM,73.4,64.4,73,30.00,10.0,SSW,6.9,-,N/A,,Overcast,200,2013-12-06 20:55:00
4:15 PM,73.4,64.4,73,30.00,10.0,SSW,9.2,-,N/A,,Overcast,200,2013-12-06 21:15:00
4:35 PM,73.4,64.4,73,30.00,10.0,South,5.8,17.3,N/A,,Mostly Cloudy,190,2013-12-06 21:35:00
4:55 PM,73.4,66.2,78,30.00,10.0,SSE,5.8,-,N/A,,Overcast,160,2013-12-06 21:55:00
5:15 PM,71.6,66.2,83,30.00,10.0,South,8.1,-,N/A,,Overcast,170,2013-12-06 22:15:00
5:35 PM,71.6,66.2,83,30.00,10.0,South,6.9,-,N/A,,Overcast,170,2013-12-06 22:35:00
5:55 PM,71.6,68.0,88,30.00,10.0,South,5.8,-,N/A,,Overcast,170,2013-12-06 22:55:00
6:15 PM,71.6,68.0,88,30.01,10.0,South,6.9,-,N/A,,Overcast,170,2013-12-06 23:15:00
6:35 PM,71.6,68.0,88,30.01,10.0,South,9.2,-,N/A,,Overcast,180,2013-12-06 23:35:00
6:55 PM,69.8,68.0,94,30.01,10.0,SSW,4.6,-,N/A,Rain,Light Rain,200,2013-12-06 23:55:00
7:15 PM,69.8,68.0,94,30.02,10.0,West,4.6,-,N/A,,Overcast,260,2013-12-07 00:15:00
7:35 PM,69.8,68.0,94,30.01,10.0,SSW,8.1,16.1,N/A,,Overcast,200,2013-12-07 00:35:00
7:55 PM,69.8,68.0,94,30.01,10.0,South,6.9,-,N/A,,Overcast,190,2013-12-07 00:55:00
8:15 PM,69.8,68.0,94,30.02,10.0,South,4.6,-,N/A,,Overcast,190,2013-12-07 01:15:00
8:35 PM,68.0,62.6,83,30.05,10.0,NW,24.2,36.8,N/A,Rain-Thunderstorm,Heavy Thunderstorms and Rain,310,2013-12-07 01:35:00
8:55 PM,57.2,55.4,94,30.07,7.0,NW,11.5,-,N/A,Rain,Light Rain,310,2013-12-07 01:55:00
9:15 PM,55.4,55.4,100,30.07,10.0,NW,8.1,-,N/A,Rain,Light Rain,320,2013-12-07 02:15:00
9:35 PM,55.4,55.4,100,30.07,10.0,NW,6.9,-,N/A,,Overcast,320,2013-12-07 02:35:00
9:55 PM,55.4,55.4,100,30.09,10.0,Calm,Calm,-,N/A,Rain,Rain,0,2013-12-07 02:55:00
10:15 PM,55.4,53.6,94,30.09,10.0,NW,4.6,-,N/A,Rain,Rain,310,2013-12-07 03:15:00
10:35 PM,55.4,53.6,94,30.09,10.0,NW,4.6,-,N/A,,Overcast,310,2013-12-07 03:35:00
10:55 PM,55.4,53.6,94,30.10,10.0,NNW,5.8,-,N/A,Rain,Rain,330,2013-12-07 03:55:00
11:15 PM,55.4,53.6,94,30.10,10.0,NNW,3.5,-,N/A,Rain,Light Rain,330,2013-12-07 04:15:00
11:35 PM,53.6,53.6,100,30.11,10.0,NW,6.9,-,N/A,Rain,Rain,320,2013-12-07 04:35:00
11:55 PM,53.6,51.8,94,30.11,10.0,NNW,4.6,-,N/A,,Drizzle,330,2013-12-07 04:55:00